Regional Weather Roundup
Issued by NWS

Home | Current Version | Previous Version | Graphics & Text | Print | Product List | Glossary On
Versions: 1 2 3 4 5 6 7 8 9 10 11 12 13 14 15 16 17 18 19 20 21 22 23 24 25 26 27
000
ASUS45 KCYS 290510
RWRWY

WYOMING REGIONAL WEATHER ROUNDUP
NATIONAL WEATHER SERVICE CHEYENNE WY
1100 PM MDT SUN MAY 28 2017

NOTE:  "FAIR" INDICATES FEW OR NO CLOUDS BELOW 12,000 FEET
WITH NO SIGNIFICANT WEATHER AND/OR OBSTRUCTIONS TO VISIBILITY.

WYZ001-290600-
YELLOWSTONE NATIONAL PARK

CITY           SKY/WX    TMP DP  RH WIND       PRES   REMARKS
LK YELLOWSTONE   N/A     36  36 100 CALM      30.40F
W YELLOWSTONE  NOT AVBL

$$
WYZ002>013-054>058-071-098>099-290600-
NORTHERN WYOMING

CITY           SKY/WX    TMP DP  RH WIND       PRES   REMARKS
JACKSON        FAIR      48  37  66 NW6       30.31F
CODY           MOCLDY    52  42  69 S5        30.30F
GREYBULL       FAIR      58  40  51 NW9       30.22R
WORLAND        CLOUDY    52  49  89 S8        30.23S
SHERIDAN       MOCLDY    52  40  63 W10       30.20S
BUFFALO        FAIR      55  35  47 W13       30.24S
GILLETTE         N/A     48  42  80 W14       30.18S
HULETT         FAIR      54  43  66 SW6       30.17S
NEWCASTLE      FAIR      46  37  71 NW7       30.17S

$$
WYZ014>020-022>026-101>103-290600-
CENTRAL WYOMING

CITY           SKY/WX    TMP DP  RH WIND       PRES   REMARKS
BIG PINEY      FAIR      44  31  60 N12       30.31R
PINEDALE       FAIR      41  32  70 W7        30.32S
DUBOIS         CLOUDY    46  34  61 CALM      30.34S
LANDER         FAIR      51  41  68 SW10      30.29S
RIVERTON       CLOUDY    54  41  61 SW5       30.30R
CASPER         MOCLDY    46  44  93 W7        30.28R
DOUGLAS        FAIR      45  41  86 NW3       30.25F

$$
WYZ021-027>030-104>119-290600-
SOUTHERN WYOMING

CITY           SKY/WX    TMP DP  RH WIND       PRES   REMARKS
EVANSTON       FAIR      53  29  39 N7        30.31R
KEMMERER         N/A     48  32  53 N5        30.32R
FORT BRIDGER   FAIR      55  27  34 W6        30.33R
ROCK SPRINGS   FAIR      50  37  61 NE18      30.31R
DIXON            N/A     48  32  54 E10       30.30S
RAWLINS        MOCLDY    49  37  63 NE16      30.30F
SARATOGA       FAIR      45  34  65 CALM      30.32S
LARAMIE        CLOUDY    45  36  70 NE12      30.32S
CHEYENNE       FAIR      50  39  66 N13G21    30.29S
TORRINGTON     FAIR      57  42  57 NW10      30.20S
PINE BLUFFS    FAIR      45  41  87 NW8       30.27S

$$




USA.gov is the U.S. government's official web portal to all federal, state and local government web resources and services.